Content
SEND FEEDBACK

Daily
Averages
Monthly
Summary
United States of America

OGLESBY, ILLINOIS


Home > North America > United States > Illinois
Elevation: 151 meters     Latitude: 41 19N     Longitude: 088 55W

WEATHER
 
SELECT A DAY
Number of Records: 53,935;   Date Range: 9/1/12 - 11/26/14
 
SHARE

PRINT THIS DATA

[ ← Previous Day ]
WEATHER ALMANAC - 31 JANUARY, 2013
[ Next Day → ]
[ °F ]   °C
Weather ElementAverageHighLow
Temperature-10.4 °C-7 °C (12:35 am)-15.5 °C (11:35 pm)
Dewpoint-14.2 °C-9.5 °C (12:55 am)-19.6 °C (11:55 pm)
Humidity74.8 %83 % (12:55 am)69 % (1:35 pm)
Barometer1014.6 hPa1024 hPa (11:55 pm)1006.8 hPa (12:35 am)
Wind Speed31.2 km/h42.6 km/h (12:55 am)
Wind Gust57.5 km/h (5:55 am)
Weather ElementAverage
Visibility14 km
Wind DirectionWNW (280 °)

Weather ElementTotal
Precipitation---
Heating Degree Days29.6 (Base 18.3)
Averaged from 71 records on 31 January, 2013
WEATHER CONDITIONS BREAKOUT
WIND DIRECTION BREAKOUT
WEATHER BY HOUR - 31 JANUARY, 2013
[ °F ]   °C
Local TimeTemperatureDewpointHumidityBarometerVisibilityWind DirectionWind SpeedGust SpeedPrecipitationEventsConditions
12:35 AM-7 °C-10 °C80 %1006.8 hPa16.1 kmWest (280°)24.1 km/h40.7 km/hSnowLight Snow
12:55 AM-7 °C-9.5 °C83 %1007.1 hPa6.4 kmWest (280°)42.6 km/h55.5 km/hSnowLight Snow
1:15 AM-7.7 °C-11 °C78 %1007.5 hPa16.1 kmWest (280°)38.9 km/h55.5 km/hOvercast
1:35 AM-8 °C-11 °C79 %1007.8 hPa11.3 kmWest (280°)31.5 km/h51.8 km/hSnowLight Snow
1:55 AM-8.3 °C-11.3 °C79 %1008.1 hPa16.1 kmWest (280°)33.3 km/h50.1 km/hMostly Cloudy
2:15 AM-8.3 °C-11.7 °C77 %1008.1 hPa16.1 kmWest (280°)29.6 km/h46.3 km/hMostly Cloudy
2:35 AM-8 °C-11.2 °C78 %1008.5 hPa11.3 kmWest (280°)27.8 km/h40.7 km/hSnowLight Snow
2:55 AM-7.7 °C-10.6 °C80 %1008.5 hPa16.1 kmWest (280°)24.1 km/h40.7 km/hSnowLight Snow
3:15 AM-7.3 °C-10.5 °C78 %1008.5 hPa16.1 kmWest (280°)29.6 km/h55.5 km/hOvercast
3:35 AM-7.1 °C-10 °C80 %1008.5 hPa16.1 kmWest (280°)25.9 km/h38.9 km/hSnowLight Snow
3:55 AM-7 °C-9.6 °C82 %1008.5 hPa8 kmWest (280°)24.1 km/h35.2 km/hSnowLight Snow
4:15 AM-7 °C-9.9 °C80 %1008.5 hPa11.3 kmWest (280°)35.2 km/h51.8 km/hSnowLight Snow
4:35 AM-7 °C-10.9 °C74 %1008.8 hPa16.1 kmWest (280°)35.2 km/h50.1 km/hOvercast
4:55 AM-7.1 °C-10.5 °C77 %1008.8 hPa16.1 kmWest (280°)27.8 km/h38.9 km/hSnowLight Snow
5:15 AM-7.5 °C-10.6 °C79 %1008.5 hPa8 kmWest (280°)18.5 km/h37 km/hSnowLight Snow
5:35 AM-7.6 °C-10.6 °C79 %1008.8 hPa16.1 kmWest (280°)25.9 km/h35.2 km/hSnowLight Snow
5:55 AM-7.8 °C-11.4 °C76 %1009.1 hPa11.3 kmWest (280°)42.6 km/h57.5 km/hSnowLight Snow
6:15 AM-9 °C-12.1 °C79 %1009.5 hPa16.1 kmWest (280°)27.8 km/h50.1 km/hMostly Cloudy
6:35 AM-9.8 °C-13.4 °C75 %1010.2 hPa16.1 kmWest (280°)35.2 km/h46.3 km/hOvercast
6:55 AM-10 °C-13.3 °C77 %1010.2 hPa16.1 kmWest (280°)27.8 km/h46.3 km/hMostly Cloudy
7:15 AM-10.2 °C-13.3 °C78 %1010.5 hPa16.1 kmWest (280°)22.2 km/h37 km/hScattered Clouds
7:35 AM-10.1 °C-13.3 °C78 %1010.8 hPa16.1 kmWest (280°)33.3 km/h44.4 km/hScattered Clouds
7:55 AM-10.4 °C-13.8 °C77 %1011.2 hPa16.1 kmWest (280°)20.4 km/h35.2 km/hMostly Cloudy
8:15 AM-10.3 °C-13.9 °C75 %1011.5 hPa16.1 kmWest (280°)33.3 km/h44.4 km/hScattered Clouds
8:35 AM-9.9 °C-13.4 °C76 %1011.9 hPa16.1 kmWest (280°)31.5 km/h40.7 km/hMostly Cloudy
8:55 AM-9.8 °C-13.5 °C75 %1011.9 hPa16.1 kmWest (280°)24.1 km/h33.3 km/hScattered Clouds
9:15 AM-9.5 °C-13.1 °C76 %1011.9 hPa16.1 kmWest (280°)38.9 km/h50.1 km/hMostly Cloudy
9:35 AM-9.3 °C-13.2 °C74 %1012.2 hPa16.1 kmWest (280°)35.2 km/h44.4 km/hMostly Cloudy
9:55 AM-9.1 °C-12.7 °C76 %1012.5 hPa16.1 kmWest (280°)35.2 km/h48.1 km/hMostly Cloudy
10:15 AM-9.2 °C-12.9 °C75 %1012.9 hPa11.3 kmWest (280°)35.2 km/h44.4 km/hMostly Cloudy
10:35 AM-9 °C-12.4 °C77 %1013.2 hPa6.4 kmWest (280°)27.8 km/h38.9 km/hHaze
10:55 AM-8.6 °C-12.3 °C75 %1013.2 hPa11.3 kmWest (280°)35.2 km/h42.6 km/hOvercast
11:15 AM-8.7 °C-12.4 °C75 %1013.2 hPa16.1 kmWest (280°)37 km/h51.8 km/hOvercast
11:35 AM-8.7 °C-12.8 °C73 %1013.5 hPa16.1 kmWest (280°)24.1 km/h37 km/hOvercast
11:55 AM-8.6 °C-12.4 °C74 %1013.5 hPa11.3 kmWest (280°)31.5 km/h42.6 km/hOvercast
12:15 PM-9.1 °C-13.2 °C73 %1013.9 hPa16.1 kmWest (280°)25.9 km/h53.8 km/hOvercast
12:35 PM-8.9 °C-13 °C73 %1013.9 hPa16.1 kmWest (280°)35.2 km/h46.3 km/hOvercast
12:55 PM-9 °C-13.4 °C71 %1013.9 hPa16.1 kmWest (280°)37 km/h53.8 km/hOvercast
1:15 PM-9.1 °C-13.3 °C72 %1013.9 hPa16.1 kmWest (280°)35.2 km/h50.1 km/hOvercast
1:35 PM-9 °C-13.7 °C69 %1013.9 hPa16.1 kmWest (280°)33.3 km/h50.1 km/hOvercast
1:55 PM-9.4 °C-13.5 °C73 %1014.2 hPa11.3 kmWest (280°)29.6 km/h53.8 km/hMostly Cloudy
2:15 PM-9.5 °C-13.7 °C72 %1014.6 hPa11.3 kmWest (280°)31.5 km/h42.6 km/hOvercast
2:35 PM-9.8 °C-13 °C78 %1014.9 hPa4 kmWest (280°)31.5 km/h50.1 km/hHaze
2:55 PM-10.4 °C-14.3 °C74 %1015.2 hPa8 kmWest (280°)37 km/h53.8 km/hHaze
3:15 PM-10.4 °C-14.6 °C72 %1015.6 hPa11.3 kmWest (280°)25.9 km/h44.4 km/hMostly Cloudy
3:35 PM-11 °C-15 °C73 %1015.9 hPa16.1 kmWest (280°)33.3 km/h51.8 km/hMostly Cloudy
3:55 PM-10.8 °C-15.4 °C69 %1016.3 hPa16.1 kmWest (280°)35.2 km/h48.1 km/hMostly Cloudy
4:15 PM-11.2 °C-15.5 °C71 %1016.6 hPa16.1 kmWest (280°)33.3 km/h55.5 km/hMostly Cloudy
4:35 PM-11.2 °C-15 °C74 %1016.9 hPa11.3 kmWest (280°)29.6 km/h44.4 km/hMostly Cloudy
4:55 PM-11.7 °C-16 °C71 %1017.3 hPa16.1 kmWest (280°)33.3 km/h42.6 km/hMostly Cloudy
5:15 PM-12 °C-15.8 °C74 %1017.6 hPa11.3 kmWest (280°)33.3 km/h53.8 km/hMostly Cloudy
5:35 PM-12.3 °C-16.6 °C71 %1017.9 hPa16.1 kmWest (280°)37 km/h53.8 km/hMostly Cloudy
5:55 PM-12.5 °C-16.7 °C71 %1018.3 hPa16.1 kmWest (280°)37 km/h51.8 km/hMostly Cloudy
6:15 PM-12.7 °C-16.5 °C74 %1018.6 hPa16.1 kmWest (280°)31.5 km/h46.3 km/hMostly Cloudy
6:35 PM-12.7 °C-16.7 °C73 %1019 hPa16.1 kmWest (280°)29.6 km/h44.4 km/hMostly Cloudy
6:55 PM-13 °C-17 °C73 %1019.3 hPa11.3 kmWest (280°)27.8 km/h42.6 km/hOvercast
7:15 PM-13.2 °C-16.8 °C75 %1019.6 hPa4 kmWest (280°)33.3 km/h48.1 km/hSnowLight Snow
7:35 PM-13.8 °C-18.2 °C70 %1020 hPa16.1 kmWest (280°)33.3 km/h50.1 km/hScattered Clouds
7:55 PM-14 °C-18 °C72 %1020.3 hPa11.3 kmWest (280°)33.3 km/h44.4 km/hMostly Cloudy
8:15 PM-14.1 °C-18 °C73 %1021 hPa11.3 kmWest (280°)42.6 km/h50.1 km/hOvercast
8:35 PM-14.3 °C-18.2 °C73 %1021.3 hPa11.3 kmWest (280°)35.2 km/h46.3 km/hOvercast
8:55 PM-14.5 °C-18.4 °C73 %1021.7 hPa16.1 kmWest (280°)35.2 km/h50.1 km/hMostly Cloudy
9:15 PM-14.6 °C-18.1 °C75 %1022 hPa8 kmWest (280°)24.1 km/h42.6 km/hHaze
9:35 PM-14.8 °C-18.9 °C72 %1022 hPa16.1 kmWest (280°)33.3 km/h48.1 km/hMostly Cloudy
9:55 PM-14.8 °C-19 °C71 %1022.4 hPa16.1 kmWest (280°)29.6 km/h46.3 km/hScattered Clouds
10:15 PM-15 °C-19 °C72 %1022.7 hPa16.1 kmWest (280°)29.6 km/h44.4 km/hScattered Clouds
10:35 PM-15.1 °C-19.1 °C72 %1023 hPa16.1 kmWest (280°)25.9 km/h37 km/hClear
10:55 PM-15.2 °C-19.3 °C72 %1023 hPa16.1 kmWest (280°)29.6 km/h38.9 km/hScattered Clouds
11:15 PM-15.4 °C-19.5 °C71 %1023.7 hPa16.1 kmWest (280°)25.9 km/h35.2 km/hClear
11:35 PM-15.5 °C-19.5 °C72 %1023.7 hPa16.1 kmWest (280°)24.1 km/h31.5 km/hScattered Clouds
11:55 PM-15.5 °C-19.6 °C71 %1024 hPa16.1 kmWest (280°)27.8 km/h40.7 km/hScattered Clouds
Hourly data recorded from KVYS, located 0 kilometers away from Oglesby, Illinois







STORIES FROM OUR PARTNERS